FW9368 Weather Reports


Display with metric or nautical units.
time (UTC)temp
F
wind
direction
speed
MPH
gust
MPH
rain 1hr
in
rain 24hr
in
rain mn
in
humidity
%
barometer
mb
20260506172520 59 360 1.0 6.0 0.01 0.01 0.01 86 1009.7
20260506172027 59 360 1.0 6.0 0.00 0.00 0.00 86 1009.6
20260506171544 60 360 3.0 6.0 0.00 0.00 0.00 85 1009.6
20260506171024 60 360 2.0 6.0 0.00 0.00 0.00 84 1009.6
20260506170523 60 0 2.0 11.0 0.00 0.00 0.00 84 1009.9
20260506170039 61 360 2.0 11.0 0.00 0.00 0.00 83 1010.0
20260506165526 61 360 3.0 8.0 0.00 0.00 0.00 82 1010.0
20260506165027 61 360 3.0 8.0 0.00 0.00 0.00 80 1010.0
20260506164538 61 360 2.0 10.0 0.00 0.00 0.00 80 1010.0
20260506164024 62 360 3.0 10.0 0.00 0.00 0.00 80 1010.1
20260506163527 62 360 3.0 9.0 0.00 0.00 0.00 80 1010.1
20260506163052 61 360 3.0 9.0 0.00 0.00 0.00 80 1010.1
20260506162527 61 360 2.0 8.0 0.00 0.00 0.00 80 1010.1
20260506162023 61 360 3.0 11.0 0.00 0.00 0.00 80 1010.0
20260506161541 61 360 2.0 11.0 0.00 0.00 0.00 80 1010.1
20260506161023 61 360 3.0 11.0 0.00 0.00 0.00 80 1010.2
20260506160527 61 360 4.0 11.0 0.00 0.00 0.00 79 1010.2
20260506160043 61 360 4.0 15.0 0.00 0.00 0.00 79 1010.4
20260506155523 62 360 2.0 15.0 0.00 0.00 0.00 80 1010.4
20260506155024 61 360 5.0 13.0 0.00 0.00 0.00 80 1010.5
20260506154547 61 360 4.0 11.0 0.00 0.00 0.00 80 1010.6
20260506154026 61 360 2.0 11.0 0.00 0.00 0.00 80 1010.5
20260506153524 61 360 2.0 11.0 0.00 0.00 0.00 80 1010.7
20260506153040 62 360 4.0 13.0 0.00 0.00 0.00 79 1010.7
20260506152528 62 360 2.0 13.0 0.00 0.00 0.00 79 1010.4
20260506152025 62 360 6.0 13.0 0.00 0.00 0.00 79 1010.4
20260506151538 62 360 5.0 12.0 0.00 0.00 0.00 79 1010.2
20260506151024 62 360 4.0 12.0 0.00 0.00 0.00 79 1010.4
20260506150524 62 360 4.0 15.0 0.00 0.00 0.00 79 1010.4
20260506150035 62 360 4.0 15.0 0.00 0.00 0.00 78 1010.5
20260506145524 62 360 6.0 15.0 0.00 0.00 0.00 78 1010.5
20260506145025 63 360 4.0 16.0 0.00 0.00 0.00 77 1010.4
20260506144539 63 360 3.0 17.0 0.00 0.00 0.00 77 1010.6
20260506144024 63 360 6.0 18.0 0.00 0.00 0.00 77 1010.7
20260506143524 64 96 6.0 18.0 0.00 0.00 0.00 77 1010.8
20260506143038 63 188 5.0 20.0 0.00 0.00 0.00 77 1010.8
20260506142523 63 171 6.0 20.0 0.00 0.00 0.00 77 1010.7
20260506142023 64 273 4.0 19.0 0.00 0.00 0.00 77 1010.8
20260506141536 63 158 9.0 17.0 0.00 0.00 0.00 77 1010.6
20260506141024 63 225 10.0 16.0 0.00 0.00 0.00 77 1010.7
20260506140526 63 233 4.0 15.0 0.00 0.00 0.00 78 1010.8
20260506140047 63 176 5.0 13.0 0.00 0.00 0.00 78 1010.9
20260506135524 63 224 5.0 12.0 0.00 0.00 0.00 78 1010.9
20260506135027 63 156 4.0 12.0 0.00 0.00 0.00 79 1010.8
20260506134535 62 360 4.0 12.0 0.00 0.00 0.00 80 1010.6
20260506134026 62 360 4.0 12.0 0.00 0.00 0.00 80 1010.8
20260506133525 62 360 4.0 12.0 0.00 0.00 0.00 80 1010.6
20260506133039 62 360 4.0 9.0 0.00 0.00 0.00 80 1010.6
20260506132523 62 360 4.0 10.0 0.00 0.00 0.00 80 1010.6
20260506132024 62 360 2.0 10.0 0.00 0.00 0.00 80 1010.4
20260506131538 62 360 5.0 11.0 0.00 0.00 0.00 79 1010.5
20260506131026 62 360 4.0 11.0 0.00 0.00 0.00 79 1010.5
20260506130527 62 360 2.0 11.0 0.00 0.00 0.00 80 1010.5
20260506130038 62 360 4.0 14.0 0.00 0.00 0.00 80 1010.6
20260506125524 62 360 6.0 14.0 0.00 0.00 0.00 80 1010.7
20260506125024 62 360 2.0 10.0 0.00 0.00 0.00 81 1010.8
20260506124539 62 360 5.0 14.0 0.00 0.00 0.00 81 1010.9
20260506124024 62 360 5.0 14.0 0.00 0.00 0.00 82 1010.9
20260506123524 61 360 3.0 11.0 0.00 0.00 0.00 83 1011.1
20260506123037 61 360 3.0 11.0 0.00 0.00 0.00 84 1011.1
20260506122524 60 360 4.0 13.0 0.00 0.00 0.00 85 1011.1
20260506122026 60 360 4.0 13.0 0.00 0.00 0.00 85 1011.1
20260506121541 59 360 3.0 9.0 0.00 0.00 0.00 86 1011.1
20260506121025 59 360 4.0 13.0 0.00 0.00 0.00 86 1010.8
20260506120525 59 360 6.0 13.0 0.00 0.00 0.00 87 1010.9
20260506120040 59 360 3.0 11.0 0.00 0.00 0.00 87 1011.0
20260506115521 59 360 3.0 11.0 0.00 0.00 0.00 88 1010.9
20260506115022 58 360 3.0 8.0 0.00 0.00 0.00 89 1010.8
20260506114540 58 360 3.0 11.0 0.00 0.00 0.00 89 1010.8
20260506114021 58 360 2.0 12.0 0.00 0.00 0.00 89 1010.8
20260506113522 58 360 4.0 12.0 0.00 0.00 0.00 90 1010.8
20260506113038 57 360 2.0 6.0 0.00 0.00 0.00 90 1010.9
20260506112522 57 360 2.0 6.0 0.00 0.00 0.00 91 1011.0
20260506112023 57 360 2.0 6.0 0.00 0.00 0.00 91 1010.9
20260506111541 57 360 2.0 8.0 0.00 0.00 0.00 91 1010.9
20260506111023 56 360 3.0 8.0 0.00 0.00 0.00 92 1011.0
20260506110522 56 360 1.0 5.0 0.00 0.00 0.00 91 1010.9
20260506110035 56 360 1.0 6.0 0.00 0.00 0.00 92 1010.9
20260506105522 56 0 2.0 6.0 0.00 0.00 0.00 92 1010.8
20260506105021 56 360 1.0 6.0 0.00 0.00 0.00 91 1010.9
20260506104543 55 360 1.0 6.0 0.00 0.00 0.00 91 1010.9
20260506104021 55 0 0.0 4.0 0.00 0.00 0.00 91 1011.0
20260506103521 55 360 1.0 5.0 0.00 0.00 0.00 91 1011.0
20260506103038 55 239 2.0 5.0 0.00 0.00 0.00 91 1010.9
20260506102525 55 184 1.0 4.0 0.00 0.00 0.00 91 1011.0
20260506102023 55 188 1.0 5.0 0.00 0.00 0.00 91 1010.9
20260506101538 55 211 1.0 5.0 0.00 0.00 0.00 91 1010.9
20260506101022 55 159 2.0 5.0 0.00 0.00 0.00 91 1011.0
20260506100522 55 234 1.0 6.0 0.00 0.00 0.00 90 1010.9
20260506100040 55 179 0.0 6.0 0.00 0.00 0.00 90 1010.9
20260506095524 55 156 3.0 6.0 0.00 0.00 0.00 90 1010.8
20260506095022 55 142 1.0 4.0 0.00 0.00 0.00 90 1010.9
20260506094541 55 0 1.0 3.0 0.00 0.00 0.00 90 1010.8
20260506094022 55 0 1.0 5.0 0.00 0.00 0.00 90 1010.7
20260506093525 55 144 1.0 5.0 0.00 0.00 0.00 90 1010.8
20260506093058 55 196 1.0 4.0 0.00 0.00 0.00 89 1010.8
20260506092522 55 169 1.0 7.0 0.00 0.00 0.00 89 1010.9
20260506092022 55 0 2.0 7.0 0.00 0.00 0.00 89 1010.8
20260506091540 55 150 1.0 7.0 0.00 0.00 0.00 89 1010.8
20260506091023 55 291 2.0 7.0 0.00 0.00 0.00 89 1010.8
20260506090522 55 206 1.0 6.0 0.00 0.00 0.00 89 1010.9
20260506090040 55 177 0.0 5.0 0.00 0.00 0.00 89 1011.0
20260506085524 55 167 1.0 5.0 0.00 0.00 0.00 89 1011.1
20260506085022 55 208 2.0 6.0 0.00 0.00 0.00 89 1011.1
20260506084537 56 150 1.0 6.0 0.00 0.00 0.00 89 1011.0
20260506084022 56 157 2.0 6.0 0.00 0.00 0.00 88 1011.0
20260506083522 56 360 0.0 6.0 0.00 0.00 0.00 88 1011.1
20260506083040 56 360 0.0 5.0 0.00 0.00 0.00 88 1011.2
20260506082524 56 190 1.0 5.0 0.00 0.00 0.00 88 1011.0
20260506082022 56 360 1.0 7.0 0.00 0.00 0.00 88 1011.1
20260506081536 56 0 2.0 8.0 0.00 0.00 0.00 88 1011.1
20260506081025 56 0 2.0 8.0 0.00 0.00 0.00 88 1011.1
20260506080523 56 150 2.0 7.0 0.00 0.00 0.00 88 1011.2
20260506073526 56 360 1.0 5.0 0.00 0.00 0.00 87 1011.3
20260506073039 56 360 1.0 5.0 0.00 0.00 0.00 87 1011.3
20260506072524 56 360 2.0 5.0 0.00 0.00 0.00 87 1011.3
20260506072027 57 167 1.0 5.0 0.00 0.00 0.00 87 1011.4
20260506071537 57 207 2.0 11.0 0.00 0.00 0.00 87 1011.4
20260506071022 57 360 2.0 11.0 0.00 0.00 0.00 87 1011.3
20260506070526 57 360 2.0 8.0 0.00 0.00 0.00 86 1011.2
20260506062023 57 360 1.0 6.0 0.00 0.00 0.00 85 1011.3
20260506061552 57 360 1.0 6.0 0.00 0.00 0.00 84 1011.2
20260506061025 57 360 2.0 4.0 0.00 0.00 0.00 84 1011.3
20260506060523 57 360 1.0 3.0 0.00 0.00 0.00 84 1011.3
20260506051022 58 360 2.0 8.0 0.00 0.00 0.00 82 1011.6
20260506050522 59 360 1.0 6.0 0.00 0.00 0.00 82 1011.6
20260506045022 59 360 1.0 8.0 0.00 0.00 0.00 81 1011.6
20260506044537 59 360 1.0 8.0 0.00 0.00 0.00 81 1011.8
20260506044023 59 360 2.0 6.0 0.00 0.00 0.00 81 1011.8
20260506043523 59 360 2.0 9.0 0.00 0.00 0.00 81 1011.8
20260506043035 59 360 3.0 9.0 0.00 0.00 0.00 81 1011.7
20260506042522 59 360 3.0 8.0 0.00 0.00 0.00 81 1011.7
20260506042023 59 360 3.0 8.0 0.00 0.00 0.00 81 1011.7
20260506041542 59 161 3.0 8.0 0.00 0.00 0.00 81 1011.7
20260506041022 59 360 1.0 10.0 0.00 0.00 0.00 81 1011.9
20260506040522 59 360 2.0 10.0 0.00 0.00 0.00 81 1011.8
20260506040040 59 360 3.0 10.0 0.00 0.00 0.00 81 1011.8
20260506035523 59 360 1.0 5.0 0.00 0.00 0.00 81 1012.0
20260506035023 59 360 1.0 5.0 0.00 0.00 0.00 80 1011.9
20260506034536 59 360 2.0 9.0 0.00 0.00 0.00 81 1011.8
20260506034024 60 360 2.0 9.0 0.00 0.00 0.00 80 1011.7
20260506033520 60 360 2.0 9.0 0.00 0.00 0.00 80 1011.7
20260506033036 60 360 4.0 9.0 0.00 0.00 0.00 80 1011.6
20260506032523 60 360 3.0 9.0 0.00 0.00 0.00 80 1011.6
20260506032023 60 360 4.0 10.0 0.00 0.00 0.00 79 1011.6
20260506031535 60 360 2.0 10.0 0.00 0.00 0.00 79 1011.6
20260506031023 60 360 3.0 10.0 0.00 0.00 0.00 78 1011.7
20260506030526 60 180 2.0 11.0 0.00 0.00 0.00 78 1011.8
20260506030040 60 202 4.0 11.0 0.00 0.00 0.00 77 1011.9
20260506025524 60 190 3.0 11.0 0.00 0.00 0.00 77 1011.8
20260506025022 60 203 3.0 11.0 0.00 0.00 0.00 76 1011.8
20260506024537 60 229 3.0 14.0 0.00 0.00 0.00 76 1011.7
20260506024024 60 136 6.0 14.0 0.00 0.00 0.00 75 1011.7
20260506023523 60 221 5.0 13.0 0.00 0.00 0.00 75 1011.7
20260506023049 60 246 3.0 13.0 0.00 0.00 0.00 75 1011.6
20260506022523 61 278 4.0 13.0 0.00 0.00 0.00 75 1011.7
20260506022024 61 293 4.0 11.0 0.00 0.00 0.00 75 1011.7
20260506021536 61 227 4.0 13.0 0.00 0.00 0.00 74 1011.6
20260506021024 61 360 3.0 14.0 0.00 0.00 0.00 74 1011.5
20260506020522 61 360 6.0 15.0 0.00 0.00 0.00 74 1011.4
20260506020108 61 360 6.0 16.0 0.00 0.00 0.00 74 1011.4
20260506015524 61 360 4.0 16.0 0.00 0.00 0.00 74 1011.3
20260506015025 61 360 5.0 17.0 0.00 0.00 0.00 74 1011.4
20260506014539 61 360 5.0 17.0 0.00 0.00 0.00 73 1011.3
20260506014024 61 360 3.0 11.0 0.00 0.00 0.00 74 1011.1
20260506013525 61 360 4.0 14.0 0.00 0.00 0.00 73 1011.1
20260506013037 61 360 5.0 14.0 0.00 0.00 0.00 73 1011.0
20260506012523 61 360 5.0 14.0 0.00 0.00 0.00 74 1010.9
20260506012023 61 165 5.0 14.0 0.00 0.00 0.00 74 1010.9
20260506011539 61 247 2.0 8.0 0.00 0.00 0.00 73 1010.9
20260506011023 61 218 3.0 11.0 0.00 0.00 0.00 73 1010.9
20260506010524 61 257 3.0 12.0 0.00 0.00 0.00 73 1011.0
20260506010035 61 181 3.0 13.0 0.00 0.00 0.00 73 1010.7
20260506005523 61 194 2.0 14.0 0.00 0.00 0.00 73 1010.7
20260506005023 61 223 5.0 14.0 0.00 0.00 0.00 73 1010.7
20260506004542 61 298 3.0 9.0 0.00 0.00 0.00 72 1010.7
20260506004025 61 254 2.0 9.0 0.00 0.00 0.00 72 1010.5
20260506003525 62 214 2.0 14.0 0.00 0.00 0.00 71 1010.4
20260506003038 62 296 3.0 17.0 0.00 0.00 0.00 71 1010.4
20260506002523 62 259 6.0 17.0 0.00 0.00 0.00 71 1010.2
20260506002023 62 360 5.0 15.0 0.00 0.00 0.00 71 1010.2
20260506001545 62 360 6.0 15.0 0.00 0.00 0.00 71 1010.1
20260506001023 62 162 5.0 12.0 0.00 0.00 0.00 71 1010.1
20260506000523 62 216 2.0 8.0 0.00 0.00 0.00 71 1010.1
20260506000052 62 360 3.0 16.0 0.00 0.00 0.00 71 1010.0
20260505235523 62 360 4.0 16.0 0.00 0.00 0.00 70 1009.9
20260505235027 62 360 2.0 13.0 0.00 0.00 0.00 70 1009.8
20260505234542 62 360 4.0 13.0 0.00 0.00 0.00 69 1009.9
20260505234026 63 200 3.0 12.0 0.00 0.00 0.00 69 1009.7
20260505233523 63 244 4.0 12.0 0.00 0.00 0.00 68 1009.8
20260505233047 63 296 4.0 14.0 0.00 0.00 0.00 68 1009.7
20260505232527 63 259 6.0 23.0 0.00 0.00 0.00 67 1009.7
20260505232023 64 360 7.0 23.0 0.00 0.00 0.00 67 1009.7
20260505231538 64 163 6.0 18.0 0.00 0.00 0.00 67 1009.5
20260505231026 64 193 5.0 17.0 0.00 0.00 0.00 66 1009.5
20260505230523 64 240 5.0 17.0 0.00 0.00 0.00 66 1009.6
20260505230044 65 210 6.0 17.0 0.00 0.00 0.00 66 1009.2
20260505225523 65 360 6.0 17.0 0.00 0.00 0.00 66 1009.4
20260505225025 65 360 8.0 17.0 0.00 0.00 0.00 65 1009.6
20260505224546 65 360 5.0 16.0 0.00 0.00 0.00 65 1009.7
20260505224024 65 360 3.0 9.0 0.00 0.00 0.00 65 1009.7
20260505223525 65 360 4.0 9.0 0.00 0.00 0.00 65 1009.6
20260505223040 66 360 2.0 10.0 0.00 0.00 0.00 65 1009.6
20260505222526 66 360 3.0 10.0 0.00 0.00 0.00 64 1009.6
20260505222023 66 360 3.0 12.0 0.00 0.00 0.00 64 1009.7
20260505221547 66 360 5.0 12.0 0.00 0.00 0.00 64 1009.6
20260505221024 66 360 3.0 15.0 0.00 0.00 0.00 63 1009.4
20260505220523 67 360 5.0 17.0 0.00 0.00 0.00 63 1009.4
20260505220036 67 177 6.0 17.0 0.00 0.00 0.00 62 1009.4
20260505215523 68 170 3.0 11.0 0.00 0.00 0.00 63 1009.3
20260505215025 68 191 4.0 11.0 0.00 0.00 0.00 62 1009.3
20260505214546 68 187 5.0 9.0 0.00 0.00 0.00 62 1009.2
20260505214026 68 166 2.0 10.0 0.00 0.00 0.00 63 1009.2
20260505213523 68 205 4.0 11.0 0.00 0.00 0.00 63 1009.1
20260505213039 68 184 5.0 11.0 0.00 0.00 0.00 63 1009.1
20260505212522 68 180 5.0 10.0 0.00 0.00 0.00 62 1009.1
20260505212023 68 267 4.0 10.0 0.00 0.00 0.00 62 1009.3
20260505211604 68 211 3.0 12.0 0.00 0.00 0.00 62 1009.4
20260505211024 68 196 3.0 15.0 0.00 0.00 0.00 62 1009.3
20260505210523 68 0 3.0 16.0 0.00 0.00 0.00 61 1009.2
20260505210043 69 186 7.0 16.0 0.00 0.00 0.00 60 1009.2
20260505205530 69 198 4.0 12.0 0.00 0.00 0.00 60 1009.1
20260505205027 70 194 3.0 14.0 0.00 0.00 0.00 59 1009.0
20260505204550 70 188 5.0 15.0 0.00 0.00 0.00 59 1009.0
20260505204026 70 229 8.0 15.0 0.00 0.00 0.00 59 1009.1
20260505203525 70 232 4.0 17.0 0.00 0.00 0.00 59 1009.1
20260505203035 70 213 5.0 17.0 0.00 0.00 0.00 59 1009.2
20260505202524 71 196 5.0 14.0 0.00 0.00 0.00 58 1009.2
20260505202028 71 200 5.0 14.0 0.00 0.00 0.00 58 1009.2
20260505201539 71 173 3.0 11.0 0.00 0.00 0.00 59 1009.2
20260505201024 71 269 5.0 13.0 0.00 0.00 0.00 58 1009.2
20260505200524 71 265 5.0 13.0 0.00 0.00 0.00 59 1009.4
20260505200039 71 174 4.0 12.0 0.00 0.00 0.00 59 1009.3
20260505195523 71 202 5.0 15.0 0.00 0.00 0.00 58 1009.3
20260505195023 71 264 5.0 18.0 0.00 0.00 0.00 58 1009.4
20260505194539 71 195 5.0 18.0 0.00 0.00 0.00 59 1009.4
20260505194032 71 188 6.0 17.0 0.00 0.00 0.00 58 1009.7
20260505193523 71 191 3.0 16.0 0.00 0.00 0.00 59 1009.7
20260505193039 71 182 7.0 16.0 0.00 0.00 0.00 59 1009.8
20260505192525 71 126 5.0 19.0 0.00 0.00 0.00 59 1009.8
20260505192023 71 178 8.0 19.0 0.00 0.00 0.00 59 1009.7
20260505191537 71 196 7.0 14.0 0.00 0.00 0.00 58 1009.9
20260505191024 72 200 6.0 16.0 0.00 0.00 0.00 58 1010.0
20260505190523 71 250 4.0 16.0 0.00 0.00 0.00 59 1010.0
20260505190036 71 257 2.0 15.0 0.00 0.00 0.00 60 1010.0
20260505185523 70 208 8.0 17.0 0.00 0.00 0.00 60 1010.1
20260505185024 70 201 6.0 17.0 0.00 0.00 0.00 60 1010.1
20260505184542 70 216 5.0 19.0 0.00 0.00 0.00 60 1010.0
20260505184024 71 217 7.0 19.0 0.00 0.00 0.00 59 1010.0
20260505183528 71 208 6.0 16.0 0.00 0.00 0.00 59 1010.1
20260505183038 71 211 4.0 16.0 0.00 0.00 0.00 59 1010.1
20260505182523 71 196 6.0 16.0 0.00 0.00 0.00 60 1010.1
20260505182028 71 131 5.0 15.0 0.00 0.00 0.00 60 1010.1
20260505181552 70 215 6.0 20.0 0.00 0.00 0.00 60 1010.1
20260505181026 71 182 7.0 20.0 0.00 0.00 0.00 60 1010.1
20260505180523 71 148 4.0 16.0 0.00 0.00 0.00 60 1010.2
20260505180037 71 194 6.0 16.0 0.00 0.00 0.00 59 1010.2
20260505175524 71 180 5.0 15.0 0.00 0.00 0.00 59 1010.3
20260505175024 72 230 6.0 14.0 0.00 0.00 0.00 57 1010.3
20260505174543 73 143 6.0 13.0 0.00 0.00 0.00 57 1010.3
20260505174024 73 161 5.0 10.0 0.00 0.00 0.00 56 1010.4
20260505173523 74 186 4.0 14.0 0.00 0.00 0.00 56 1010.4
20260505173039 74 227 6.0 14.0 0.00 0.00 0.00 56 1010.3